User: anonymous   Login
Location: Nebula Knoll Observatory
(43.6666°N, 71.0000°W)
Time: 09:15:11
(UTC-04:00)
Language:

SeaSat 1 - Orbit

View from above orbital plane
View from above orbital plane
View from above satellite
View from above satellite

Ground track
Ground track

The orbit data is extracted from the following two-line orbital elements,

1 10967U 78064A   14305.16003867  .00000334  00000-0  13998-3 0  4271
2 10967 107.9938 096.8616 0001255 263.4300 186.2023 14.43135200908236
Epoch (UTC): 01 November 2014 03:50:27
Eccentricity: 0.0001255
inclination: 107.9938°
perigee height: 747 km
apogee height: 749 km
right ascension of ascending node: 96.8616°
argument of perigee: 263.4300°
revolutions per day: 14.43135200
mean anomaly at epoch: 186.2023°
orbit number at epoch: 90823

The dashed part of the orbit path shows where the satellite is in the earth's shadow,  

DLR